Location: Coupvray
(48.8929°N, 2.7967°E)
Time: 13:56:24
(UTC+00:00)

Altair 2 - Pass Details

Date: 21 January 2021
Orbit: 837 x 949 km, 90.2° (Epoch: 28 February)

Event Time Altitude Azimuth Distance (km) Brightness Sun altitude
Rises 17:40:46 0° 161° (SSE) 3,392 10.8 -11.6°
Reaches altitude 10° 17:43:12 10° 157° (SSE) 2,454 10.1 -12.0°
Maximum altitude 17:48:30 54° 82° (E) 1,017 7.8 -12.9°
Drops below altitude 10° 17:53:51 10° 6° (N) 2,468 9.9 -13.7°
Sets 17:56:17 0° 2° (N) 3,413 10.7 -14.1°
